,,,PA_Meas_PMT16A,,PR_Meas_QMR101_102,,RH_Meas_QMH101,,SR_Meas_QMS101,,TA_Meas_QMH101,,GenWind,,GenWind,
date,time,status,PA,status,PR,status,RH,status,SR,status,TA,status,DirAvg,status,SpdAvg,
2009-05-10, 00:00:05,VALID,999.173,VALID,0,VALID,83.1934,VALID,0,VALID,25.4578,VALID,169,VALID,1.10195,
2009-05-10, 00:01:05,VALID,999.162,VALID,0,VALID,83.3689,VALID,0,VALID,25.4969,VALID,159,VALID,0.748438,
2009-05-10, 00:02:05,VALID,999.191,VALID,0,VALID,83.4375,VALID,0,VALID,25.5379,VALID,119,VALID,0.672266,
2009-05-10, 00:03:05,VALID,999.194,VALID,0,VALID,83.7122,VALID,0,VALID,25.4578,VALID,62,VALID,0.826953,
2009-05-10, 00:04:05,VALID,999.211,VALID,0,VALID,84.3912,VALID,0,VALID,25.3212,VALID,57,VALID,0.767969,
2009-05-10, 00:05:05,VALID,999.18,VALID,0,VALID,84.704,VALID,0,VALID,25.1455,VALID,43,VALID,0.453125,
2009-05-10, 00:06:05,VALID,999.195,VALID,0,VALID,85.5357,VALID,0,VALID,24.9717,VALID,43,VALID,0.542969,
2009-05-10, 00:07:05,VALID,999.182,VALID,0,VALID,86.4894,VALID,0,VALID,24.7746,VALID,24,VALID,0.638281,
2009-05-10, 00:08:05,VALID,999.216,VALID,0,VALID,87.321,VALID,0,VALID,24.5794,VALID,24,VALID,0.544922,
2009-05-10, 00:09:05,VALID,999.214,VALID,0,VALID,88.1068,VALID,0,VALID,24.4056,VALID,24,VALID,0.691016,
2009-05-10, 00:10:05,VALID,999.228,VALID,0,VALID,88.8851,VALID,0,VALID,24.2476,VALID,24,VALID,0.678125,
2009-05-10, 00:11:05,VALID,999.179,VALID,0,VALID,89.3352,VALID,0,VALID,24.1324,VALID,24,VALID,0.644141,
2009-05-10, 00:12:05,VALID,999.172,VALID,0,VALID,89.9303,VALID,0,VALID,24.0153,VALID,23,VALID,0.699219,
2009-05-10, 00:13:05,VALID,999.131,VALID,0,VALID,90.6399,VALID,0,VALID,23.9177,VALID,13,VALID,0.753906,
2009-05-10, 00:14:05,VALID,999.115,VALID,0,VALID,91.2274,VALID,0,VALID,23.8396,VALID,13,VALID,0.65625,
2009-05-10, 00:15:05,VALID,999.097,VALID,0,VALID,91.708,VALID,0,VALID,23.7988,VALID,9,VALID,0.445313,
2009-05-10, 00:16:05,VALID,999.096,VALID,0,VALID,92.0743,VALID,0,VALID,23.8006,VALID,341,VALID,0.507813,
2009-05-10, 00:17:05,VALID,999.09,VALID,0,VALID,92.3108,VALID,0,VALID,23.7793,VALID,341,VALID,0.401172,
2009-05-10, 00:18:05,VALID,999.045,VALID,0,VALID,92.3794,VALID,0,VALID,23.8006,VALID,341,VALID,0.346484,
2009-05-10, 00:19:05,VALID,999.057,VALID,0,VALID,92.4328,VALID,0,VALID,23.7793,VALID,341,VALID,0.410156,
2009-05-10, 00:20:05,VALID,999.061,VALID,0,VALID,92.4405,VALID,0,VALID,23.7793,VALID,341,VALID,0.442969,
2009-05-10, 00:21:05,VALID,999.054,VALID,0,VALID,92.4252,VALID,0,VALID,23.7793,VALID,341,VALID,0.453125,
2009-05-10, 00:22:05,VALID,999.058,VALID,0,VALID,92.4252,VALID,0,VALID,23.7811,VALID,341,VALID,0.466016,
2009-05-10, 00:23:05,VALID,999.051,VALID,0,VALID,92.4252,VALID,0,VALID,23.7793,VALID,341,VALID,0.667188,
2009-05-10, 00:24:05,VALID,999.047,VALID,0,VALID,92.6083,VALID,0,VALID,23.7793,VALID,14,VALID,0.904297,
2009-05-10, 00:25:05,VALID,999.031,VALID,0,VALID,92.6388,VALID,0,VALID,23.8591,VALID,22,VALID,0.873828,
2009-05-10, 00:26:05,VALID,998.986,VALID,0,VALID,92.4405,VALID,0,VALID,23.8573,VALID,22,VALID,0.764063,
2009-05-10, 00:27:05,VALID,998.982,VALID,0,VALID,92.3108,VALID,0,VALID,23.9372,VALID,22,VALID,0.721094,
2009-05-10, 00:28:05,VALID,998.96,VALID,0,VALID,91.4868,VALID,0,VALID,23.8963,VALID,22,VALID,0.793359,
2009-05-10, 00:29:05,VALID,998.942,VALID,0,VALID,91.502,VALID,0,VALID,23.8982,VALID,36,VALID,1.07695,
2009-05-10, 00:30:05,VALID,998.938,VALID,0,VALID,91.7309,VALID,0,VALID,23.8982,VALID,40,VALID,1.03945,
2009-05-10, 00:31:05,VALID,998.951,VALID,0,VALID,91.5326,VALID,0,VALID,23.8591,VALID,44,VALID,0.813281,
2009-05-10, 00:32:05,VALID,998.94,VALID,0,VALID,91.5554,VALID,0,VALID,23.8396,VALID,44,VALID,0.858594,
2009-05-10, 00:33:05,VALID,998.898,VALID,0,VALID,91.708,VALID,0,VALID,23.8006,VALID,45,VALID,0.895312,
2009-05-10, 00:34:05,VALID,998.909,VALID,0,VALID,91.7233,VALID,0,VALID,23.7402,VALID,50,VALID,0.8875,
2009-05-10, 00:35:05,VALID,998.896,VALID,0,VALID,91.7462,VALID,0,VALID,23.7225,VALID,56,VALID,0.78125,
2009-05-10, 00:36:05,VALID,998.867,VALID,0,VALID,91.7996,VALID,0,VALID,23.6622,VALID,55,VALID,0.607813,
2009-05-10, 00:37:05,VALID,998.873,VALID,0,VALID,91.8377,VALID,0,VALID,23.6036,VALID,55,VALID,0.462891,
2009-05-10, 00:38:05,VALID,998.82,VALID,0,VALID,91.9598,VALID,0,VALID,23.5646,VALID,54,VALID,0.383594,
2009-05-10, 00:39:05,VALID,998.83,VALID,0,VALID,92.0971,VALID,0,VALID,23.5061,VALID,54,VALID,0.325,
2009-05-10, 00:40:05,VALID,998.77,VALID,0,VALID,92.4328,VALID,0,VALID,23.4866,VALID,32,VALID,0.585156,
2009-05-10, 00:41:05,VALID,998.784,VALID,0,VALID,92.6236,VALID,0,VALID,23.4866,VALID,352,VALID,0.502734,
2009-05-10, 00:42:05,VALID,998.749,VALID,0,VALID,92.7075,VALID,0,VALID,23.4475,VALID,352,VALID,0.642969,
2009-05-10, 00:43:05,VALID,998.786,VALID,0,VALID,92.7228,VALID,0,VALID,23.4671,VALID,352,VALID,0.682422,
2009-05-10, 00:44:05,VALID,998.782,VALID,0,VALID,92.7838,VALID,0,VALID,23.4475,VALID,358,VALID,0.705078,
2009-05-10, 00:45:05,VALID,998.748,VALID,0,VALID,92.7075,VALID,0,VALID,23.4475,VALID,6,VALID,0.785547,
2009-05-10, 00:46:05,VALID,998.732,VALID,0,VALID,92.6236,VALID,0,VALID,23.389,VALID,6,VALID,0.339063,
2009-05-10, 00:47:05,VALID,998.748,VALID,0,VALID,92.5931,VALID,0,VALID,23.3695,VALID,6,VALID,0.161328,
2009-05-10, 00:48:05,VALID,998.737,VALID,0,VALID,92.7762,VALID,0,VALID,23.3305,VALID,6,VALID,0.0558594,
2009-05-10, 00:49:05,VALID,998.708,VALID,0,VALID,92.9745,VALID,0,VALID,23.35,VALID,6,VALID,0.133203,
2009-05-10, 00:50:05,VALID,998.702,VALID,0,VALID,93.0966,VALID,0,VALID,23.3695,VALID,6,VALID,0.294531,
2009-05-10, 00:51:05,VALID,998.714,VALID,0,VALID,93.2568,VALID,0,VALID,23.3713,VALID,6,VALID,0.669531,
2009-05-10, 00:52:05,VALID,998.71,VALID,0,VALID,93.2797,VALID,0,VALID,23.3695,VALID,6,VALID,0.84375,
2009-05-10, 00:53:05,VALID,998.736,VALID,0,VALID,93.2187,VALID,0,VALID,23.3695,VALID,6,VALID,0.980859,
2009-05-10, 00:54:05,VALID,998.718,VALID,0,VALID,93.1653,VALID,0,VALID,23.3695,VALID,11,VALID,0.99375,
2009-05-10, 00:55:05,VALID,998.723,VALID,0,VALID,93.0203,VALID,0,VALID,23.3695,VALID,11,VALID,1.03945,
2009-05-10, 00:56:05,VALID,998.75,VALID,0,VALID,93.0814,VALID,0,VALID,23.3518,VALID,11,VALID,1.36875,
2009-05-10, 00:57:05,VALID,998.767,VALID,0,VALID,93.15,VALID,0,VALID,23.3305,VALID,12,VALID,1.62031,
2009-05-10, 00:58:05,VALID,998.791,VALID,0,VALID,93.0127,VALID,0,VALID,23.311,VALID,34,VALID,1.63945,
2009-05-10, 00:59:05,VALID,998.775,VALID,0,VALID,93.0432,VALID,0,VALID,23.2915,VALID,31,VALID,1.83867,
2009-05-10, 01:00:05,VALID,998.79,VALID,0,VALID,93.0585,VALID,0,VALID,23.2719,VALID,31,VALID,1.425,
2009-05-10, 01:01:05,VALID,998.772,VALID,0,VALID,92.8754,VALID,0,VALID,23.2542,VALID,30,VALID,1.37734,
2009-05-10, 01:02:05,VALID,998.768,VALID,0,VALID,92.6846,VALID,0,VALID,23.1939,VALID,34,VALID,1.17461,
2009-05-10, 01:03:05,VALID,998.774,VALID,0,VALID,92.7228,VALID,0,VALID,23.1549,VALID,31,VALID,1.19492,
2009-05-10, 01:04:05,VALID,998.767,VALID,0,VALID,92.6694,VALID,0,VALID,23.1371,VALID,30,VALID,1.2957,
2009-05-10, 01:05:05,VALID,998.756,VALID,0,VALID,92.7151,VALID,0,VALID,23.0573,VALID,33,VALID,1.33867,
2009-05-10, 01:06:05,VALID,998.744,VALID,0,VALID,92.7609,VALID,0,VALID,23.0378,VALID,28,VALID,1.53359,
2009-05-10, 01:07:05,VALID,998.712,VALID,0,VALID,92.7609,VALID,0,VALID,22.9988,VALID,22,VALID,1.73438,
2009-05-10, 01:08:05,VALID,998.69,VALID,0,VALID,92.6388,VALID,0,VALID,23.0201,VALID,23,VALID,1.25078,
2009-05-10, 01:09:05,VALID,998.671,VALID,0,VALID,92.5473,VALID,0,VALID,22.9793,VALID,29,VALID,1.12891,
2009-05-10, 01:10:05,VALID,998.654,VALID,0,VALID,92.5168,VALID,0,VALID,22.9793,VALID,23,VALID,1.10391,
2009-05-10, 01:11:05,VALID,998.622,VALID,0,VALID,92.4481,VALID,0,VALID,22.9598,VALID,27,VALID,1.28281,
2009-05-10, 01:12:05,VALID,998.586,VALID,0,VALID,92.4863,VALID,0,VALID,22.9403,VALID,32,VALID,1.26523,
2009-05-10, 01:13:05,VALID,998.592,VALID,0,VALID,92.5168,VALID,0,VALID,22.9403,VALID,37,VALID,1,
2009-05-10, 01:14:05,VALID,998.589,VALID,0,VALID,92.6236,VALID,0,VALID,22.9208,VALID,35,VALID,1.12422,
2009-05-10, 01:15:05,VALID,998.574,VALID,0,VALID,92.883,VALID,0,VALID,22.9013,VALID,36,VALID,1.00586,
2009-05-10, 01:16:05,VALID,998.581,VALID,0,VALID,93.234,VALID,0,VALID,22.9225,VALID,36,VALID,1.00625,
2009-05-10, 01:17:05,VALID,998.612,VALID,0,VALID,93.3942,VALID,0,VALID,22.942,VALID,36,VALID,0.819922,
2009-05-10, 01:18:05,VALID,998.596,VALID,0,VALID,93.4552,VALID,0,VALID,22.9208,VALID,36,VALID,0.662109,
2009-05-10, 01:19:05,VALID,998.588,VALID,0,VALID,93.3789,VALID,0,VALID,22.942,VALID,36,VALID,0.648828,
2009-05-10, 01:20:05,VALID,998.6,VALID,0,VALID,93.295,VALID,0,VALID,22.9013,VALID,36,VALID,0.264453,
2009-05-10, 01:21:05,VALID,998.597,VALID,0,VALID,93.2874,VALID,0,VALID,22.8623,VALID,36,VALID,0.138281,
2009-05-10, 01:22:05,VALID,998.564,VALID,0,VALID,93.2568,VALID,0,VALID,22.864,VALID,36,VALID,0.000390625,
2009-05-10, 01:23:05,VALID,998.562,VALID,0,VALID,93.3942,VALID,0,VALID,22.8232,VALID,36,VALID,0.448047,
2009-05-10, 01:24:05,VALID,998.507,VALID,0,VALID,93.4323,VALID,0,VALID,22.8037,VALID,49,VALID,0.562891,
2009-05-10, 01:25:05,VALID,998.508,VALID,0,VALID,93.3866,VALID,0,VALID,22.825,VALID,49,VALID,0.372266,
2009-05-10, 01:26:05,VALID,998.486,VALID,0,VALID,93.3942,VALID,0,VALID,22.8037,VALID,49,VALID,0.382031,
2009-05-10, 01:27:05,VALID,998.48,VALID,0,VALID,93.3637,VALID,0,VALID,22.7842,VALID,49,VALID,0.213672,
2009-05-10, 01:28:05,VALID,998.477,VALID,0,VALID,93.3713,VALID,0,VALID,22.7842,VALID,49,VALID,0.241016,
2009-05-10, 01:29:05,VALID,998.477,VALID,0,VALID,93.3789,VALID,0.112286,VALID,22.7647,VALID,49,VALID,0.446094,
2009-05-10, 01:30:05,VALID,998.468,VALID,0,VALID,93.3866,VALID,0,VALID,22.7452,VALID,49,VALID,0.417188,
2009-05-10, 01:31:05,VALID,998.424,VALID,0,VALID,93.4323,VALID,0,VALID,22.7452,VALID,49,VALID,0.488281,
2009-05-10, 01:32:05,VALID,998.466,VALID,0,VALID,93.4781,VALID,0,VALID,22.7257,VALID,49,VALID,0.458203,
2009-05-10, 01:33:05,VALID,998.49,VALID,0,VALID,93.5697,VALID,0,VALID,22.7452,VALID,48,VALID,0.602734,
2009-05-10, 01:34:05,VALID,998.483,VALID,0,VALID,93.6002,VALID,0,VALID,22.7664,VALID,48,VALID,0.534766,
2009-05-10, 01:35:05,VALID,998.509,VALID,0,VALID,93.5926,VALID,0,VALID,22.7257,VALID,40,VALID,0.785937,
2009-05-10, 01:36:05,VALID,998.465,VALID,0,VALID,93.5315,VALID,0,VALID,22.7062,VALID,34,VALID,0.5625,
2009-05-10, 01:37:05,VALID,998.468,VALID,0,VALID,93.7146,VALID,0,VALID,22.7257,VALID,32,VALID,0.577344,
2009-05-10, 01:38:05,VALID,998.447,VALID,0,VALID,93.7985,VALID,0,VALID,22.7257,VALID,32,VALID,0.639453,
2009-05-10, 01:39:05,VALID,998.452,VALID,0,VALID,93.7757,VALID,0.112286,VALID,22.7452,VALID,31,VALID,0.579297,
2009-05-10, 01:40:05,VALID,998.452,VALID,0,VALID,93.7985,VALID,0,VALID,22.7257,VALID,31,VALID,0.541406,
2009-05-10, 01:41:05,VALID,998.442,VALID,0,VALID,93.8825,VALID,0,VALID,22.7452,VALID,31,VALID,0.526563,
2009-05-10, 01:42:05,VALID,998.428,VALID,0,VALID,93.9283,VALID,0,VALID,22.7452,VALID,31,VALID,0.494531,
2009-05-10, 01:43:05,VALID,998.42,VALID,0,VALID,93.8977,VALID,0,VALID,22.7664,VALID,31,VALID,0.539844,
2009-05-10, 01:44:05,VALID,998.442,VALID,0,VALID,93.8748,VALID,0,VALID,22.7452,VALID,31,VALID,0.410547,
2009-05-10, 01:45:05,VALID,998.437,VALID,0,VALID,93.7528,VALID,0,VALID,22.7469,VALID,31,VALID,0.582031,
2009-05-10, 01:46:05,VALID,998.415,VALID,0,VALID,93.6994,VALID,0,VALID,22.7079,VALID,31,VALID,0.4,
2009-05-10, 01:47:05,VALID,998.433,VALID,0,VALID,93.7451,VALID,0,VALID,22.6672,VALID,31,VALID,0.344922,
2009-05-10, 01:48:05,VALID,998.424,VALID,0,VALID,93.7604,VALID,0,VALID,22.7079,VALID,31,VALID,0.385156,
2009-05-10, 01:49:05,VALID,998.382,VALID,0,VALID,93.7528,VALID,0,VALID,22.6884,VALID,31,VALID,0.417188,
2009-05-10, 01:50:05,VALID,998.384,VALID,0,VALID,93.852,VALID,0,VALID,22.6672,VALID,31,VALID,0.474609,
2009-05-10, 01:51:05,VALID,998.355,VALID,0,VALID,93.8672,VALID,0,VALID,22.6884,VALID,31,VALID,0.465625,
2009-05-10, 01:52:05,VALID,998.302,VALID,0,VALID,93.8062,VALID,0,VALID,22.6672,VALID,31,VALID,0.444922,
2009-05-10, 01:53:05,VALID,998.313,VALID,0,VALID,93.7909,VALID,0,VALID,22.6884,VALID,31,VALID,0.539063,
2009-05-10, 01:54:05,VALID,998.303,VALID,0,VALID,93.7528,VALID,0,VALID,22.6867,VALID,31,VALID,0.561719,
2009-05-10, 01:55:05,VALID,998.261,VALID,0,VALID,93.8138,VALID,0,VALID,22.6867,VALID,31,VALID,0.641016,
2009-05-10, 01:56:05,VALID,998.236,VALID,0,VALID,93.8062,VALID,0,VALID,22.7062,VALID,68,VALID,0.768359,
2009-05-10, 01:57:05,VALID,998.245,VALID,0,VALID,93.913,VALID,0,VALID,22.7257,VALID,68,VALID,0.567578,
2009-05-10, 01:58:05,VALID,998.24,VALID,0,VALID,93.8214,VALID,0,VALID,22.7647,VALID,68,VALID,0.663281,
2009-05-10, 01:59:05,VALID,998.247,VALID,0,VALID,93.6154,VALID,0,VALID,22.786,VALID,75,VALID,0.851563,
2009-05-10, 02:00:05,VALID,998.237,VALID,0,VALID,93.5697,VALID,0,VALID,22.8037,VALID,81,VALID,1.14531,
2009-05-10, 02:01:05,VALID,998.241,VALID,0,VALID,93.356,VALID,0,VALID,22.825,VALID,74,VALID,0.846875,
2009-05-10, 02:02:05,VALID,998.23,VALID,0,VALID,93.2874,VALID,0,VALID,22.825,VALID,57,VALID,0.727734,
2009-05-10, 02:03:05,VALID,998.225,VALID,0,VALID,93.1653,VALID,0,VALID,22.8037,VALID,54,VALID,0.644922,
2009-05-10, 02:04:05,VALID,998.205,VALID,0,VALID,93.1271,VALID,0,VALID,22.8055,VALID,50,VALID,0.601563,
2009-05-10, 02:05:05,VALID,998.189,VALID,0,VALID,92.9974,VALID,0,VALID,22.786,VALID,40,VALID,0.383984,
2009-05-10, 02:06:05,VALID,998.151,VALID,0,VALID,92.9974,VALID,0,VALID,22.7469,VALID,40,VALID,0.348047,
2009-05-10, 02:07:05,VALID,998.142,VALID,0,VALID,93.0127,VALID,0,VALID,22.7062,VALID,40,VALID,0.263281,
2009-05-10, 02:08:05,VALID,998.119,VALID,0,VALID,93.028,VALID,0,VALID,22.7079,VALID,40,VALID,0.1375,
2009-05-10, 02:09:05,VALID,998.103,VALID,0,VALID,93.0203,VALID,0,VALID,22.6672,VALID,40,VALID,0.160156,
2009-05-10, 02:10:05,VALID,998.112,VALID,0,VALID,93.1043,VALID,0,VALID,22.6477,VALID,40,VALID,0.161328,
2009-05-10, 02:11:05,VALID,998.126,VALID,0,VALID,93.1195,VALID,0,VALID,22.6494,VALID,40,VALID,0.144922,
2009-05-10, 02:12:05,VALID,998.083,VALID,0,VALID,93.2034,VALID,0,VALID,22.6087,VALID,40,VALID,0,
2009-05-10, 02:13:05,VALID,998.076,VALID,0,VALID,93.3255,VALID,0,VALID,22.6299,VALID,40,VALID,0.222656,
2009-05-10, 02:14:05,VALID,998.048,VALID,0,VALID,93.3866,VALID,0,VALID,22.6087,VALID,40,VALID,0.101953,
2009-05-10, 02:15:05,VALID,998.012,VALID,0,VALID,93.4247,VALID,0,VALID,22.6104,VALID,40,VALID,0.0359375,
2009-05-10, 02:16:05,VALID,997.989,VALID,0,VALID,93.5468,VALID,0,VALID,22.6299,VALID,40,VALID,0.275391,
2009-05-10, 02:17:05,VALID,997.97,VALID,0,VALID,93.6917,VALID,0,VALID,22.6282,VALID,40,VALID,0.306641,
2009-05-10, 02:18:05,VALID,997.952,VALID,0,VALID,93.6994,VALID,0,VALID,22.6282,VALID,40,VALID,0.289844,
2009-05-10, 02:19:05,VALID,997.919,VALID,0,VALID,93.7375,VALID,0,VALID,22.6494,VALID,40,VALID,0.406641,
2009-05-10, 02:20:05,VALID,997.895,VALID,0,VALID,93.768,VALID,0,VALID,22.6477,VALID,40,VALID,0.401953,
2009-05-10, 02:21:05,VALID,997.885,VALID,0,VALID,93.7146,VALID,0,VALID,22.6884,VALID,40,VALID,0.514063,
2009-05-10, 02:22:05,VALID,997.883,VALID,0,VALID,93.6765,VALID,0,VALID,22.7257,VALID,95,VALID,0.616016,
2009-05-10, 02:23:05,VALID,997.859,VALID,0,VALID,93.4476,VALID,0,VALID,22.7842,VALID,95,VALID,0.614062,
2009-05-10, 02:24:05,VALID,997.865,VALID,0,VALID,93.2797,VALID,0,VALID,22.864,VALID,95,VALID,0.65625,
2009-05-10, 02:25:05,VALID,997.85,VALID,0,VALID,93.1119,VALID,0,VALID,22.9403,VALID,95,VALID,0.539844,
2009-05-10, 02:26:05,VALID,997.868,VALID,0,VALID,92.5397,VALID,0,VALID,23.0006,VALID,95,VALID,0.588281,
2009-05-10, 02:27:05,VALID,997.845,VALID,0,VALID,92.1124,VALID,0,VALID,23.0183,VALID,95,VALID,0.698438,
2009-05-10, 02:28:04,VALID,997.881,VALID,0,VALID,91.8835,VALID,0,VALID,23.0378,VALID,95,VALID,0.578125,
2009-05-10, 02:29:04,VALID,997.877,VALID,0,VALID,91.9522,VALID,0,VALID,23.0981,VALID,95,VALID,0.508594,
2009-05-10, 02:30:04,VALID,997.848,VALID,0,VALID,91.792,VALID,0,VALID,23.0769,VALID,95,VALID,0.524219,
2009-05-10, 02:31:04,VALID,997.856,VALID,0,VALID,91.6165,VALID,0,VALID,23.0573,VALID,95,VALID,0.476172,
2009-05-10, 02:32:04,VALID,997.865,VALID,0,VALID,91.6928,VALID,0,VALID,23.0183,VALID,95,VALID,0.525391,
2009-05-10, 02:33:04,VALID,997.876,VALID,0,VALID,92.1811,VALID,0,VALID,23.0183,VALID,95,VALID,0.564453,
2009-05-10, 02:34:04,VALID,997.872,VALID,0,VALID,92.3871,VALID,0,VALID,23.0183,VALID,95,VALID,0.305469,
2009-05-10, 02:35:04,VALID,997.886,VALID,0,VALID,92.4481,VALID,0,VALID,23.0396,VALID,95,VALID,0.203906,
2009-05-10, 02:36:04,VALID,997.888,VALID,0,VALID,92.3794,VALID,0,VALID,23.0183,VALID,95,VALID,0.244922,
2009-05-10, 02:37:04,VALID,997.874,VALID,0,VALID,92.3108,VALID,0,VALID,22.9793,VALID,95,VALID,0,
2009-05-10, 02:38:04,VALID,997.844,VALID,0,VALID,92.3871,VALID,0,VALID,22.9598,VALID,95,VALID,0,
2009-05-10, 02:39:04,VALID,997.859,VALID,0,VALID,92.532,VALID,0,VALID,22.9811,VALID,95,VALID,0,
2009-05-10, 02:40:04,VALID,997.865,VALID,0,VALID,92.6083,VALID,0.112286,VALID,22.9598,VALID,95,VALID,0,
2009-05-10, 02:41:04,VALID,997.864,VALID,0,VALID,92.6694,VALID,0,VALID,22.9615,VALID,95,VALID,0,
2009-05-10, 02:42:04,VALID,997.854,VALID,0,VALID,92.7457,VALID,0,VALID,22.942,VALID,95,VALID,0,
2009-05-10, 02:43:04,VALID,997.895,VALID,0,VALID,92.7685,VALID,0,VALID,22.9225,VALID,95,VALID,0.160938,
2009-05-10, 02:44:04,VALID,997.904,VALID,0,VALID,92.7914,VALID,0,VALID,22.942,VALID,95,VALID,0.0210938,
2009-05-10, 02:45:04,VALID,997.873,VALID,0,VALID,92.822,VALID,0,VALID,22.9225,VALID,95,VALID,0.000390625,
2009-05-10, 02:46:04,VALID,997.89,VALID,0,VALID,92.9288,VALID,0,VALID,22.9403,VALID,95,VALID,0.0570313,
2009-05-10, 02:47:04,VALID,997.904,VALID,0,VALID,92.8525,VALID,0,VALID,22.9598,VALID,95,VALID,0.183984,
2009-05-10, 02:48:04,VALID,997.879,VALID,0,VALID,92.6694,VALID,0,VALID,22.9615,VALID,95,VALID,0.345313,
2009-05-10, 02:49:04,VALID,997.877,VALID,0,VALID,92.5091,VALID,0,VALID,22.9598,VALID,94,VALID,0.404687,
2009-05-10, 02:50:04,VALID,997.852,VALID,0,VALID,92.6694,VALID,0,VALID,22.9793,VALID,41,VALID,0.626562,
2009-05-10, 02:51:04,VALID,997.841,VALID,0,VALID,91.9827,VALID,0,VALID,22.9615,VALID,34,VALID,0.946484,
2009-05-10, 02:52:04,VALID,997.828,VALID,0,VALID,92.0514,VALID,0,VALID,22.9208,VALID,34,VALID,0.921875,
2009-05-10, 02:53:04,VALID,997.823,VALID,0,VALID,92.204,VALID,0,VALID,22.9403,VALID,38,VALID,0.927734,
2009-05-10, 02:54:04,VALID,997.815,VALID,0,VALID,92.2345,VALID,0,VALID,22.9988,VALID,39,VALID,0.814453,
2009-05-10, 02:55:04,VALID,997.8,VALID,0,VALID,91.7233,VALID,0,VALID,23.0183,VALID,39,VALID,0.957422,
2009-05-10, 02:56:04,VALID,997.791,VALID,0,VALID,90.8611,VALID,0,VALID,23.0183,VALID,36,VALID,1.20977,
2009-05-10, 02:57:04,VALID,997.804,VALID,0,VALID,90.7696,VALID,0,VALID,22.9988,VALID,36,VALID,0.955859,
2009-05-10, 02:58:04,VALID,997.771,VALID,0,VALID,90.7009,VALID,0,VALID,22.9403,VALID,35,VALID,0.296094,
2009-05-10, 02:59:04,VALID,997.804,VALID,0,VALID,90.7925,VALID,0,VALID,22.8623,VALID,36,VALID,0.118359,
2009-05-10, 03:00:04,VALID,997.826,VALID,0,VALID,91.3494,VALID,0,VALID,22.8427,VALID,36,VALID,0.403516,
2009-05-10, 03:01:04,VALID,997.858,VALID,0,VALID,91.4181,VALID,0,VALID,22.8055,VALID,35,VALID,0.471094,
2009-05-10, 03:02:04,VALID,997.913,VALID,0,VALID,91.5097,VALID,0,VALID,22.7647,VALID,9,VALID,0.716016,
2009-05-10, 03:03:04,VALID,997.901,VALID,0,VALID,91.7233,VALID,0,VALID,22.7257,VALID,9,VALID,0.758984,
2009-05-10, 03:04:04,VALID,997.916,VALID,0,VALID,92.2421,VALID,0,VALID,22.7079,VALID,7,VALID,0.695313,
2009-05-10, 03:05:04,VALID,997.945,VALID,0,VALID,92.4481,VALID,0,VALID,22.7062,VALID,353,VALID,0.4875,
2009-05-10, 03:06:04,VALID,997.935,VALID,0,VALID,92.6846,VALID,0,VALID,22.7257,VALID,353,VALID,0.341016,
2009-05-10, 03:07:04,VALID,997.964,VALID,0,VALID,92.822,VALID,0,VALID,22.7257,VALID,353,VALID,0.505469,
2009-05-10, 03:08:04,VALID,997.914,VALID,0,VALID,92.9288,VALID,0,VALID,22.7452,VALID,278,VALID,0.4625,
2009-05-10, 03:09:04,VALID,997.963,VALID,0,VALID,92.8677,VALID,0,VALID,22.7647,VALID,278,VALID,0.321094,
2009-05-10, 03:10:04,VALID,997.951,VALID,0,VALID,92.9517,VALID,0,VALID,22.7647,VALID,278,VALID,0.48125,
2009-05-10, 03:11:04,VALID,997.914,VALID,0,VALID,92.9517,VALID,0,VALID,22.7842,VALID,278,VALID,0.40625,
2009-05-10, 03:12:04,VALID,997.915,VALID,0,VALID,92.9059,VALID,0,VALID,22.825,VALID,278,VALID,0.349219,
2009-05-10, 03:13:04,VALID,997.89,VALID,0,VALID,92.8677,VALID,0,VALID,22.8037,VALID,278,VALID,0.420312,
2009-05-10, 03:14:04,VALID,997.839,VALID,0,VALID,92.8677,VALID,0,VALID,22.8445,VALID,278,VALID,0.409375,
2009-05-10, 03:15:04,VALID,997.84,VALID,0,VALID,92.9059,VALID,0,VALID,22.8232,VALID,278,VALID,0.398828,
2009-05-10, 03:16:04,VALID,997.84,VALID,0,VALID,92.9593,VALID,0,VALID,22.8232,VALID,278,VALID,0.375781,
2009-05-10, 03:17:04,VALID,997.795,VALID,0,VALID,93.0203,VALID,0,VALID,22.8232,VALID,278,VALID,0.396094,
2009-05-10, 03:18:04,VALID,997.828,VALID,0,VALID,93.028,VALID,0,VALID,22.8232,VALID,278,VALID,0.558984,
2009-05-10, 03:19:04,VALID,997.791,VALID,0,VALID,93.0966,VALID,0,VALID,22.8232,VALID,332,VALID,0.696094,
2009-05-10, 03:20:04,VALID,997.773,VALID,0,VALID,93.0814,VALID,0,VALID,22.8445,VALID,333,VALID,0.681641,
2009-05-10, 03:21:04,VALID,997.746,VALID,0,VALID,92.8601,VALID,0,VALID,22.8037,VALID,333,VALID,0.557031,
2009-05-10, 03:22:04,VALID,997.759,VALID,0,VALID,92.7914,VALID,0,VALID,22.8037,VALID,333,VALID,0.532422,
2009-05-10, 03:23:04,VALID,997.716,VALID,0,VALID,92.7914,VALID,0,VALID,22.786,VALID,333,VALID,0.519141,
2009-05-10, 03:24:04,VALID,997.704,VALID,0,VALID,92.8906,VALID,0,VALID,22.7469,VALID,333,VALID,0.666406,
2009-05-10, 03:25:04,VALID,997.715,VALID,0,VALID,93.1119,VALID,0,VALID,22.7274,VALID,22,VALID,0.771875,
2009-05-10, 03:26:04,VALID,997.67,VALID,0,VALID,93.3103,VALID,0,VALID,22.7274,VALID,27,VALID,0.783984,
2009-05-10, 03:27:04,VALID,997.679,VALID,0,VALID,93.0966,VALID,0,VALID,22.6884,VALID,51,VALID,0.949609,
2009-05-10, 03:28:04,VALID,997.666,VALID,0,VALID,92.9822,VALID,0,VALID,22.6884,VALID,51,VALID,0.924609,
2009-05-10, 03:29:04,VALID,997.69,VALID,0,VALID,92.7838,VALID,0,VALID,22.6689,VALID,54,VALID,1.09922,
2009-05-10, 03:30:04,VALID,997.695,VALID,0,VALID,92.3031,VALID,0,VALID,22.6511,VALID,65,VALID,1.1707,
2009-05-10, 03:31:04,VALID,997.728,VALID,0,VALID,92.204,VALID,0,VALID,22.5909,VALID,58,VALID,1.00742,
2009-05-10, 03:32:04,VALID,997.737,VALID,0,VALID,92.2574,VALID,0,VALID,22.5731,VALID,58,VALID,0.944922,
2009-05-10, 03:33:04,VALID,997.733,VALID,0,VALID,92.4023,VALID,0,VALID,22.5323,VALID,52,VALID,0.995703,
2009-05-10, 03:34:04,VALID,997.759,VALID,0,VALID,92.4405,VALID,0,VALID,22.4933,VALID,43,VALID,1.06602,
2009-05-10, 03:35:04,VALID,997.74,VALID,0,VALID,92.3871,VALID,0,VALID,22.4543,VALID,36,VALID,1.07813,
2009-05-10, 03:36:04,VALID,997.747,VALID,0,VALID,92.3871,VALID,0,VALID,22.4153,VALID,27,VALID,1.25977,
2009-05-10, 03:37:04,VALID,997.73,VALID,0,VALID,92.4557,VALID,0,VALID,22.3975,VALID,34,VALID,1.33828,
2009-05-10, 03:38:04,VALID,997.734,VALID,0,VALID,92.822,VALID,0,VALID,22.3551,VALID,37,VALID,1.48242,
2009-05-10, 03:39:04,VALID,997.716,VALID,0,VALID,92.9974,VALID,0,VALID,22.3551,VALID,44,VALID,1.32148,
2009-05-10, 03:40:04,VALID,997.734,VALID,0,VALID,93.0814,VALID,0,VALID,22.3356,VALID,46,VALID,1.34805,
2009-05-10, 03:41:04,VALID,997.702,VALID,0,VALID,93.3179,VALID,0,VALID,22.3161,VALID,50,VALID,1.79453,
2009-05-10, 03:42:04,VALID,997.71,VALID,0,VALID,93.3866,VALID,0,VALID,22.3161,VALID,51,VALID,1.40391,
2009-05-10, 03:43:04,VALID,997.675,VALID,0,VALID,93.4705,VALID,0,VALID,22.3178,VALID,47,VALID,1.26875,
2009-05-10, 03:44:04,VALID,997.689,VALID,0,VALID,93.5086,VALID,0,VALID,22.2771,VALID,52,VALID,1.04531,
2009-05-10, 03:45:04,VALID,997.685,VALID,0,VALID,93.501,VALID,0,VALID,22.2576,VALID,55,VALID,0.920703,
2009-05-10, 03:46:04,VALID,997.677,VALID,0,VALID,93.4705,VALID,0,VALID,22.2771,VALID,55,VALID,0.78125,
2009-05-10, 03:47:04,VALID,997.666,VALID,0,VALID,93.4018,VALID,0,VALID,22.2381,VALID,49,VALID,0.793359,